STARLINK-36129

Last updated on Mon Dec 15 2025 00:02:12 GMT+0000 (Coordinated Universal Time)

1 66874U 25281AC 25348.25003472 -.01528682 00000+0 -63735-2 0 9993 2 66874 43.0002 112.8594 0001316 266.2018 325.8153 15.87314509 1672
UTC large
Height (km)
Speed (km/s)
/
Latitude / Longitude
Inclination (degrees)
Orbital Period (minutes)
Azimuth
Elevation
Range (km)
Doppler Factor

Next 0 passes for location: London (51.5072 / 0.1276)

Sorry there are no passes over London.